Time,TemperatureF,DewpointF,PressureIn,WindDirection,WindDirectionDegrees,WindSpeedMPH,WindSpeedGustMPH,Humidity,HourlyPrecipIn,Conditions,Clouds,dailyrainin,SolarRadiationWatts/m^2,SoftwareType,DateUTC
2013-02-20 00:04:00,44.7,16.6,29.67,SW,234,13.0,15.0,32,0.00,,,0.00,0,Wunderground v.1.15,2013-02-20 07:04:00,
2013-02-20 00:10:00,44.6,17.2,29.67,SW,232,12.0,15.0,33,0.00,,,0.00,0,Wunderground v.1.15,2013-02-20 07:10:00,
2013-02-20 00:16:00,44.2,16.9,29.68,WSW,240,12.0,16.0,33,0.00,,,0.00,0,Wunderground v.1.15,2013-02-20 07:16:00,
2013-02-20 00:22:00,44.1,17.5,29.68,WSW,244,12.0,12.0,34,0.00,,,0.00,0,Wunderground v.1.15,2013-02-20 07:22:00,
2013-02-20 00:28:00,44.0,18.1,29.68,WSW,250,13.0,17.0,35,0.00,,,0.00,0,Wunderground v.1.15,2013-02-20 07:28:00,
2013-02-20 00:34:00,43.7,17.8,29.68,SW,234,13.0,15.0,35,0.00,,,0.00,0,Wunderground v.1.15,2013-02-20 07:34:00,
2013-02-20 00:40:00,43.5,18.3,29.68,WSW,240,13.0,15.0,36,0.00,,,0.00,0,Wunderground v.1.15,2013-02-20 07:40:00,
2013-02-20 00:46:00,43.2,18.6,29.68,SSW,213,12.0,16.0,37,0.00,,,0.00,0,Wunderground v.1.15,2013-02-20 07:46:00,
2013-02-20 00:52:00,43.1,19.2,29.67,WSW,240,12.0,16.0,38,0.00,,,0.00,0,Wunderground v.1.15,2013-02-20 07:52:00,
2013-02-20 00:58:00,42.7,19.4,29.67,WSW,243,11.0,13.0,39,0.00,,,0.00,0,Wunderground v.1.15,2013-02-20 07:58:00,
2013-02-20 01:06:00,42.5,19.8,29.67,SW,225,10.0,11.0,40,0.00,,,0.00,0,Wunderground v.1.15,2013-02-20 08:06:00,
2013-02-20 01:12:00,42.2,19.6,29.67,SW,221,10.0,12.0,40,0.00,,,0.00,0,Wunderground v.1.15,2013-02-20 08:12:00,
2013-02-20 01:18:00,42.0,20.0,29.67,SSW,207,10.0,12.0,41,0.00,,,0.00,0,Wunderground v.1.15,2013-02-20 08:18:00,
2013-02-20 01:24:00,42.1,20.1,29.67,SW,221,11.0,17.0,41,0.00,,,0.00,0,Wunderground v.1.15,2013-02-20 08:24:00,
2013-02-20 01:30:00,42.0,20.5,29.67,SW,220,11.0,12.0,42,0.00,,,0.00,0,Wunderground v.1.15,2013-02-20 08:30:00,
2013-02-20 01:36:00,41.8,20.9,29.66,SW,226,11.0,14.0,43,0.00,,,0.00,0,Wunderground v.1.15,2013-02-20 08:36:00,
2013-02-20 01:42:00,41.8,20.9,29.66,SW,232,12.0,14.0,43,0.00,,,0.00,0,Wunderground v.1.15,2013-02-20 08:42:00,
2013-02-20 01:48:00,41.7,20.8,29.66,SW,227,12.0,16.0,43,0.00,,,0.00,0,Wunderground v.1.15,2013-02-20 08:48:00,
2013-02-20 01:54:00,41.6,21.3,29.66,SW,228,12.0,12.0,44,0.00,,,0.00,0,Wunderground v.1.15,2013-02-20 08:54:00,
2013-02-20 02:00:00,41.6,21.3,29.66,SW,222,13.0,13.0,44,0.00,,,0.00,0,Wunderground v.1.15,2013-02-20 09:00:00,
2013-02-20 02:06:00,41.5,21.7,29.66,SW,221,12.0,15.0,45,0.00,,,0.00,0,Wunderground v.1.15,2013-02-20 09:06:00,
2013-02-20 02:12:00,41.5,21.7,29.66,WSW,238,13.0,13.0,45,0.00,,,0.00,0,Wunderground v.1.15,2013-02-20 09:12:00,
2013-02-20 02:18:00,41.4,22.7,29.66,SW,222,13.0,15.0,47,0.00,,,0.00,0,Wunderground v.1.15,2013-02-20 09:18:00,
2013-02-20 02:24:00,41.3,23.1,29.66,SSW,210,12.0,14.0,48,0.00,,,0.00,0,Wunderground v.1.15,2013-02-20 09:24:00,
2013-02-20 02:30:00,41.2,23.5,29.65,SW,224,12.0,12.0,49,0.00,,,0.00,0,Wunderground v.1.15,2013-02-20 09:30:00,
2013-02-20 02:36:00,41.0,23.8,29.65,SW,227,13.0,16.0,50,0.00,,,0.00,0,Wunderground v.1.15,2013-02-20 09:36:00,
2013-02-20 02:42:00,40.7,24.0,29.65,SW,234,13.0,14.0,51,0.00,,,0.00,0,Wunderground v.1.15,2013-02-20 09:42:00,
2013-02-20 02:48:00,40.6,24.3,29.65,SW,231,13.0,17.0,52,0.00,,,0.00,0,Wunderground v.1.15,2013-02-20 09:48:00,
2013-02-20 02:54:00,40.6,24.3,29.66,SW,232,13.0,13.0,52,0.00,,,0.00,0,Wunderground v.1.15,2013-02-20 09:54:00,
2013-02-20 03:00:00,40.4,24.6,29.65,SW,224,12.0,12.0,53,0.00,,,0.00,0,Wunderground v.1.15,2013-02-20 10:00:00,
2013-02-20 03:06:00,40.1,24.3,29.66,SW,236,11.0,13.0,53,0.00,,,0.00,0,Wunderground v.1.15,2013-02-20 10:06:00,
2013-02-20 03:12:00,39.8,24.9,29.65,SW,225,10.0,10.0,55,0.00,,,0.00,0,Wunderground v.1.15,2013-02-20 10:12:00,
2013-02-20 03:18:00,39.7,25.3,29.66,SW,223,9.0,11.0,56,0.00,,,0.00,0,Wunderground v.1.15,2013-02-20 10:18:00,
2013-02-20 03:24:00,39.6,25.6,29.66,SW,228,8.0,9.0,57,0.00,,,0.00,0,Wunderground v.1.15,2013-02-20 10:24:00,
2013-02-20 03:30:00,39.8,25.8,29.66,WSW,248,7.0,7.0,57,0.00,,,0.00,0,Wunderground v.1.15,2013-02-20 10:30:00,
2013-02-20 03:36:00,39.7,25.7,29.66,WSW,250,5.0,7.0,57,0.00,,,0.00,0,Wunderground v.1.15,2013-02-20 10:36:00,
2013-02-20 03:42:00,40.0,25.6,29.66,West,271,4.0,10.0,56,0.00,,,0.00,0,Wunderground v.1.15,2013-02-20 10:42:00,
2013-02-20 03:48:00,40.6,26.1,29.65,West,273,5.0,10.0,56,0.00,,,0.00,0,Wunderground v.1.15,2013-02-20 10:48:00,
2013-02-20 03:54:00,40.7,26.6,29.65,West,263,6.0,8.0,57,0.00,,,0.00,0,Wunderground v.1.15,2013-02-20 10:54:00,
2013-02-20 04:00:00,40.6,27.0,29.65,WSW,253,8.0,8.0,58,0.00,,,0.00,0,Wunderground v.1.15,2013-02-20 11:00:00,
2013-02-20 04:06:00,40.5,27.3,29.65,WSW,252,7.0,8.0,59,0.00,,,0.00,0,Wunderground v.1.15,2013-02-20 11:06:00,
2013-02-20 04:13:00,40.3,27.5,29.65,West,259,6.0,7.0,60,0.00,,,0.00,0,Wunderground v.1.15,2013-02-20 11:13:00,
2013-02-20 04:18:00,40.2,27.4,29.65,West,259,6.0,10.0,60,0.00,,,0.00,0,Wunderground v.1.15,2013-02-20 11:18:00,
2013-02-20 04:24:00,40.2,27.8,29.65,SW,217,6.0,6.0,61,0.00,,,0.00,0,Wunderground v.1.15,2013-02-20 11:24:00,
2013-02-20 04:30:00,40.3,27.9,29.65,SW,229,6.0,6.0,61,0.00,,,0.00,0,Wunderground v.1.15,2013-02-20 11:30:00,
2013-02-20 04:36:00,40.2,27.8,29.65,SW,219,6.0,7.0,61,0.00,,,0.00,0,Wunderground v.1.15,2013-02-20 11:36:00,
2013-02-20 04:42:00,40.1,28.1,29.64,SSW,205,6.0,8.0,62,0.00,,,0.00,0,Wunderground v.1.15,2013-02-20 11:42:00,
2013-02-20 04:48:00,40.0,28.8,29.64,South,180,6.0,8.0,64,0.00,,,0.00,0,Wunderground v.1.15,2013-02-20 11:48:00,
2013-02-20 04:54:00,39.9,29.1,29.64,SW,220,7.0,9.0,65,0.00,,,0.00,0,Wunderground v.1.15,2013-02-20 11:54:00,
2013-02-20 05:00:00,39.8,29.0,29.64,SSW,205,8.0,8.0,65,0.00,,,0.00,0,Wunderground v.1.15,2013-02-20 12:00:00,
2013-02-20 05:06:00,39.7,29.3,29.65,SW,219,7.0,9.0,66,0.00,,,0.00,0,Wunderground v.1.15,2013-02-20 12:06:00,
2013-02-20 05:12:00,39.6,29.2,29.65,SW,221,6.0,6.0,66,0.00,,,0.00,0,Wunderground v.1.15,2013-02-20 12:12:00,
2013-02-20 05:18:00,39.5,28.7,29.65,SW,221,7.0,10.0,65,0.00,,,0.00,0,Wunderground v.1.15,2013-02-20 12:18:00,
2013-02-20 05:24:00,39.5,29.1,29.65,SW,223,8.0,11.0,66,0.00,,,0.00,0,Wunderground v.1.15,2013-02-20 12:24:00,
2013-02-20 05:30:00,39.4,29.0,29.65,SW,216,9.0,9.0,66,0.00,,,0.00,0,Wunderground v.1.15,2013-02-20 12:30:00,
2013-02-20 05:36:00,39.4,29.0,29.65,SW,224,9.0,10.0,66,0.00,,,0.00,0,Wunderground v.1.15,2013-02-20 12:36:00,
2013-02-20 05:42:00,39.4,29.0,29.66,SW,220,8.0,8.0,66,0.00,,,0.00,0,Wunderground v.1.15,2013-02-20 12:42:00,
2013-02-20 05:48:00,39.3,28.9,29.65,SSW,203,7.0,9.0,66,0.00,,,0.00,0,Wunderground v.1.15,2013-02-20 12:48:00,
2013-02-20 05:54:00,39.3,28.9,29.66,SW,227,8.0,10.0,66,0.00,,,0.00,0,Wunderground v.1.15,2013-02-20 12:54:00,
2013-02-20 06:00:00,39.3,28.9,29.65,SSW,210,8.0,8.0,66,0.00,,,0.00,0,Wunderground v.1.15,2013-02-20 13:00:00,
2013-02-20 06:06:00,39.2,28.8,29.65,SSW,205,8.0,9.0,66,0.00,,,0.00,0,Wunderground v.1.15,2013-02-20 13:06:00,
2013-02-20 06:12:00,39.1,29.1,29.65,WSW,240,8.0,8.0,67,0.00,,,0.00,0,Wunderground v.1.15,2013-02-20 13:12:00,
2013-02-20 06:18:00,39.0,29.0,29.65,SSW,213,8.0,8.0,67,0.00,,,0.00,0,Wunderground v.1.15,2013-02-20 13:18:00,
2013-02-20 06:24:00,38.9,28.9,29.65,SSW,206,7.0,10.0,67,0.00,,,0.00,0,Wunderground v.1.15,2013-02-20 13:24:00,
2013-02-20 06:30:00,38.9,28.5,29.65,SSW,202,7.0,10.0,66,0.00,,,0.00,0,Wunderground v.1.15,2013-02-20 13:30:00,
2013-02-20 06:36:00,38.8,28.4,29.65,WSW,250,8.0,10.0,66,0.00,,,0.00,0,Wunderground v.1.15,2013-02-20 13:36:00,
2013-02-20 06:42:00,38.6,27.5,29.65,SSW,199,8.0,8.0,64,0.00,,,0.00,0,Wunderground v.1.15,2013-02-20 13:42:00,
2013-02-20 06:48:00,38.4,27.7,29.65,SSW,194,8.0,8.0,65,0.00,,,0.00,0,Wunderground v.1.15,2013-02-20 13:48:00,
2013-02-20 06:54:00,38.3,27.6,29.66,WSW,244,9.0,10.0,65,0.00,,,0.00,0,Wunderground v.1.15,2013-02-20 13:54:00,
2013-02-20 07:00:00,38.2,27.5,29.66,SW,229,10.0,10.0,65,0.00,,,0.00,5,Wunderground v.1.15,2013-02-20 14:00:00,
2013-02-20 07:06:00,38.2,27.5,29.66,WSW,237,9.0,12.0,65,0.00,,,0.00,21,Wunderground v.1.15,2013-02-20 14:06:00,
2013-02-20 07:12:00,38.2,27.1,29.66,SSW,205,10.0,11.0,64,0.00,,,0.00,25,Wunderground v.1.15,2013-02-20 14:12:00,
2013-02-20 07:18:00,38.2,26.7,29.67,SW,229,10.0,15.0,63,0.00,,,0.00,42,Wunderground v.1.15,2013-02-20 14:18:00,
2013-02-20 07:24:00,38.4,26.5,29.67,SW,234,12.0,14.0,62,0.00,,,0.00,56,Wunderground v.1.15,2013-02-20 14:24:00,
2013-02-20 07:30:00,38.5,27.0,29.67,SSW,192,11.0,11.0,63,0.00,,,0.00,65,Wunderground v.1.15,2013-02-20 14:30:00,
2013-02-20 07:36:00,38.4,26.5,29.67,SW,219,10.0,13.0,62,0.00,,,0.00,37,Wunderground v.1.15,2013-02-20 14:36:00,
2013-02-20 07:42:00,38.2,26.3,29.67,WSW,244,10.0,12.0,62,0.00,,,0.00,30,Wunderground v.1.15,2013-02-20 14:42:00,
2013-02-20 07:48:00,38.1,26.6,29.67,South,180,9.0,12.0,63,0.00,,,0.00,42,Wunderground v.1.15,2013-02-20 14:48:00,
2013-02-20 07:54:00,38.1,26.2,29.66,SSW,200,10.0,15.0,62,0.00,,,0.00,46,Wunderground v.1.15,2013-02-20 14:54:00,
2013-02-20 08:00:00,38.2,26.3,29.67,SSW,209,12.0,12.0,62,0.00,,,0.00,77,Wunderground v.1.15,2013-02-20 15:00:00,
2013-02-20 08:06:00,38.3,26.4,29.67,SW,215,11.0,19.0,62,0.00,,,0.00,77,Wunderground v.1.15,2013-02-20 15:06:00,
2013-02-20 08:12:00,38.4,26.5,29.67,SSW,196,12.0,14.0,62,0.00,,,0.00,95,Wunderground v.1.15,2013-02-20 15:12:00,
2013-02-20 08:18:00,38.4,26.5,29.68,SSW,205,13.0,14.0,62,0.00,,,0.00,107,Wunderground v.1.15,2013-02-20 15:18:00,
2013-02-20 08:24:00,38.5,27.0,29.68,SW,215,13.0,13.0,63,0.00,,,0.00,142,Wunderground v.1.15,2013-02-20 15:24:00,
2013-02-20 08:30:00,39.2,27.7,29.68,SW,219,13.0,13.0,63,0.00,,,0.00,418,Wunderground v.1.15,2013-02-20 15:30:00,
2013-02-20 08:36:00,39.3,27.4,29.68,SW,217,14.0,18.0,62,0.00,,,0.00,162,Wunderground v.1.15,2013-02-20 15:36:00,
2013-02-20 08:42:00,39.0,27.5,29.68,SSW,202,14.0,14.0,63,0.00,,,0.00,206,Wunderground v.1.15,2013-02-20 15:42:00,
2013-02-20 08:48:00,39.3,28.1,29.69,SW,221,12.0,14.0,64,0.00,,,0.00,218,Wunderground v.1.15,2013-02-20 15:48:00,
2013-02-20 08:54:00,40.2,28.6,29.68,SW,223,11.0,12.0,63,0.00,,,0.00,608,Wunderground v.1.15,2013-02-20 15:54:00,
2013-02-20 09:00:00,40.9,27.2,29.68,SW,227,11.0,11.0,58,0.00,,,0.00,197,Wunderground v.1.15,2013-02-20 16:00:00,
2013-02-20 09:06:00,39.8,27.0,29.68,SSW,194,12.0,18.0,60,0.00,,,0.00,148,Wunderground v.1.15,2013-02-20 16:06:00,
2013-02-20 09:12:00,39.5,27.5,29.68,SW,224,12.0,14.0,62,0.00,,,0.00,149,Wunderground v.1.15,2013-02-20 16:12:00,
2013-02-20 09:18:00,39.0,27.5,29.69,SSW,200,12.0,17.0,63,0.00,,,0.00,102,Wunderground v.1.15,2013-02-20 16:18:00,
2013-02-20 09:24:00,38.6,28.6,29.68,SSW,202,11.0,12.0,67,0.00,,,0.00,100,Wunderground v.1.15,2013-02-20 16:24:00,
2013-02-20 09:30:00,38.2,28.9,29.69,SSW,200,10.0,10.0,69,0.00,,,0.00,98,Wunderground v.1.15,2013-02-20 16:30:00,
2013-02-20 09:36:00,38.3,28.7,29.69,SW,224,9.0,10.0,68,0.00,,,0.00,105,Wunderground v.1.15,2013-02-20 16:36:00,
2013-02-20 09:42:00,38.5,29.2,29.69,WSW,243,9.0,10.0,69,0.00,,,0.00,123,Wunderground v.1.15,2013-02-20 16:42:00,
2013-02-20 09:48:00,38.4,29.8,29.69,SSW,202,9.0,14.0,71,0.00,,,0.00,123,Wunderground v.1.15,2013-02-20 16:48:00,
2013-02-20 09:54:00,38.1,30.2,29.69,SSW,211,9.0,12.0,73,0.00,,,0.00,130,Wunderground v.1.15,2013-02-20 16:54:00,
2013-02-20 10:00:00,37.7,30.8,29.69,SSW,196,12.0,12.0,76,0.00,,,0.00,156,Wunderground v.1.15,2013-02-20 17:00:00,
2013-02-20 10:06:00,36.1,31.1,29.69,SW,217,13.0,16.0,82,0.00,,,0.00,165,Wunderground v.1.15,2013-02-20 17:06:00,
2013-02-20 10:12:00,36.1,31.7,29.69,SW,228,12.0,13.0,84,0.00,,,0.00,158,Wunderground v.1.15,2013-02-20 17:12:00,
2013-02-20 10:18:00,36.6,32.2,29.69,SW,227,10.0,13.0,84,0.00,,,0.00,185,Wunderground v.1.15,2013-02-20 17:18:00,
2013-02-20 10:24:00,37.3,32.0,29.69,SW,223,7.0,10.0,81,0.00,,,0.00,158,Wunderground v.1.15,2013-02-20 17:24:00,
2013-02-20 10:30:00,38.2,31.3,29.69,SW,217,9.0,11.0,76,0.00,,,0.00,197,Wunderground v.1.15,2013-02-20 17:30:00,
2013-02-20 10:36:00,38.7,31.1,29.69,SW,235,11.0,21.0,74,0.00,,,0.00,193,Wunderground v.1.15,2013-02-20 17:36:00,
2013-02-20 10:42:00,39.0,31.7,29.69,SW,223,12.0,13.0,75,0.00,,,0.00,306,Wunderground v.1.15,2013-02-20 17:42:00,
2013-02-20 10:48:00,39.7,31.8,29.68,SSW,209,10.0,13.0,73,0.00,,,0.00,359,Wunderground v.1.15,2013-02-20 17:48:00,
2013-02-20 10:54:00,40.5,31.5,29.68,SW,215,9.0,13.0,70,0.00,,,0.00,406,Wunderground v.1.15,2013-02-20 17:54:00,
2013-02-20 11:00:00,40.8,31.4,29.68,SW,227,10.0,11.0,69,0.00,,,0.00,431,Wunderground v.1.15,2013-02-20 18:00:00,
2013-02-20 11:06:00,41.4,30.9,29.68,SW,215,12.0,16.0,66,0.00,,,0.00,373,Wunderground v.1.15,2013-02-20 18:06:00,
2013-02-20 11:12:00,42.8,31.8,29.67,SSW,209,14.0,18.0,65,0.00,,,0.00,489,Wunderground v.1.15,2013-02-20 18:12:00,
2013-02-20 11:18:00,43.4,31.6,29.67,SSW,198,15.0,18.0,63,0.00,,,0.00,1088,Wunderground v.1.15,2013-02-20 18:18:00,
2013-02-20 11:24:00,44.3,31.3,29.67,South,190,15.0,17.0,60,0.00,,,0.00,805,Wunderground v.1.15,2013-02-20 18:24:00,
2013-02-20 11:30:00,44.3,31.3,29.67,WSW,252,15.0,16.0,60,0.00,,,0.00,1023,Wunderground v.1.15,2013-02-20 18:30:00,
2013-02-20 11:36:00,44.4,31.8,29.66,SW,234,15.0,16.0,61,0.00,,,0.00,972,Wunderground v.1.15,2013-02-20 18:36:00,
2013-02-20 11:42:00,44.7,33.6,29.66,SSW,209,13.0,20.0,65,0.00,,,0.00,596,Wunderground v.1.15,2013-02-20 18:42:00,
2013-02-20 11:48:00,44.2,33.2,29.66,SW,232,14.0,20.0,65,0.00,,,0.00,1158,Wunderground v.1.15,2013-02-20 18:48:00,
2013-02-20 11:54:00,44.4,33.0,29.66,SW,229,13.0,17.0,64,0.00,,,0.00,661,Wunderground v.1.15,2013-02-20 18:54:00,
2013-02-20 12:01:00,44.8,33.4,29.65,SSW,213,12.0,23.0,64,0.00,,,0.00,687,Wunderground v.1.15,2013-02-20 19:01:00,
2013-02-20 12:06:00,44.2,32.4,29.65,SSW,209,16.0,23.0,63,0.00,,,0.00,661,Wunderground v.1.15,2013-02-20 19:06:00,
2013-02-20 12:13:00,44.6,32.4,29.64,SW,215,18.0,18.0,62,0.00,,,0.00,677,Wunderground v.1.15,2013-02-20 19:13:00,
2013-02-20 12:18:00,44.8,32.6,29.64,SW,214,16.0,20.0,62,0.00,,,0.00,529,Wunderground v.1.15,2013-02-20 19:18:00,
2013-02-20 12:24:00,44.3,31.7,29.63,SSW,211,15.0,15.0,61,0.00,,,0.00,557,Wunderground v.1.15,2013-02-20 19:24:00,
2013-02-20 12:30:00,44.8,32.2,29.62,SW,229,15.0,16.0,61,0.00,,,0.00,598,Wunderground v.1.15,2013-02-20 19:30:00,
2013-02-20 12:36:00,44.8,32.2,29.61,SW,214,16.0,19.0,61,0.00,,,0.00,568,Wunderground v.1.15,2013-02-20 19:36:00,
2013-02-20 12:42:00,44.5,32.7,29.61,SSW,196,17.0,20.0,63,0.00,,,0.00,454,Wunderground v.1.15,2013-02-20 19:42:00,
2013-02-20 12:48:00,44.1,33.5,29.62,SSW,203,16.0,22.0,66,0.00,,,0.00,429,Wunderground v.1.15,2013-02-20 19:48:00,
2013-02-20 12:54:00,42.3,36.6,29.62,SW,224,16.0,16.0,80,0.00,,,0.00,413,Wunderground v.1.15,2013-02-20 19:54:00,
2013-02-20 13:00:00,42.5,34.8,29.62,SSW,202,15.0,15.0,74,0.00,,,0.00,434,Wunderground v.1.15,2013-02-20 20:00:00,
2013-02-20 13:06:00,41.4,35.1,29.62,SW,226,16.0,16.0,78,0.00,,,0.00,255,Wunderground v.1.15,2013-02-20 20:06:00,
2013-02-20 13:12:00,41.3,34.6,29.61,SW,214,14.0,17.0,77,0.00,,,0.00,345,Wunderground v.1.15,2013-02-20 20:12:00,
2013-02-20 13:18:00,41.2,33.5,29.64,NW,317,15.0,20.0,74,0.00,,,0.00,109,Wunderground v.1.15,2013-02-20 20:18:00,
2013-02-20 13:24:00,33.6,27.8,29.63,NW,304,15.0,19.0,79,0.00,,,0.00,63,Wunderground v.1.15,2013-02-20 20:24:00,
2013-02-20 13:30:00,30.7,27.8,29.64,NW,314,19.0,19.0,89,0.00,,,0.00,97,Wunderground v.1.15,2013-02-20 20:30:00,
2013-02-20 13:36:00,30.2,27.9,29.64,NW,310,18.0,23.0,91,0.00,,,0.00,134,Wunderground v.1.15,2013-02-20 20:36:00,
2013-02-20 13:42:00,30.1,28.1,29.65,WNW,298,17.0,17.0,92,0.00,,,0.00,142,Wunderground v.1.15,2013-02-20 20:42:00,
2013-02-20 13:48:00,30.2,28.4,29.65,WNW,298,14.0,22.0,93,0.00,,,0.00,125,Wunderground v.1.15,2013-02-20 20:48:00,
2013-02-20 13:54:00,30.0,28.2,29.66,NW,325,15.0,20.0,93,0.00,,,0.00,107,Wunderground v.1.15,2013-02-20 20:54:00,
2013-02-20 14:00:00,29.9,28.1,29.67,WNW,288,15.0,19.0,93,0.00,,,0.00,98,Wunderground v.1.15,2013-02-20 21:00:00,
2013-02-20 14:06:00,29.9,28.1,29.67,West,279,14.0,19.0,93,0.00,,,0.00,105,Wunderground v.1.15,2013-02-20 21:06:00,
2013-02-20 14:12:00,29.8,28.0,29.69,West,275,12.0,17.0,93,0.00,,,0.00,105,Wunderground v.1.15,2013-02-20 21:12:00,
2013-02-20 14:18:00,29.8,28.0,29.69,WNW,284,12.0,17.0,93,0.00,,,0.00,118,Wunderground v.1.15,2013-02-20 21:18:00,
2013-02-20 14:24:00,29.9,28.1,29.69,West,276,13.0,15.0,93,0.00,,,0.00,137,Wunderground v.1.15,2013-02-20 21:24:00,
2013-02-20 14:30:00,29.8,28.0,29.70,WNW,298,13.0,13.0,93,0.00,,,0.00,114,Wunderground v.1.15,2013-02-20 21:30:00,
2013-02-20 14:36:00,29.9,28.1,29.71,West,279,11.0,13.0,93,0.00,,,0.00,98,Wunderground v.1.15,2013-02-20 21:36:00,
2013-02-20 14:42:00,29.9,28.1,29.70,West,273,10.0,10.0,93,0.00,,,0.00,155,Wunderground v.1.15,2013-02-20 21:42:00,
2013-02-20 14:48:00,30.0,28.2,29.71,West,277,8.0,10.0,93,0.00,,,0.00,158,Wunderground v.1.15,2013-02-20 21:48:00,
2013-02-20 14:55:00,30.1,28.3,29.71,West,266,6.0,7.0,93,0.00,,,0.00,232,Wunderground v.1.15,2013-02-20 21:55:00,
2013-02-20 15:00:00,30.1,28.3,29.71,West,260,6.0,8.0,93,0.00,,,0.00,162,Wunderground v.1.15,2013-02-20 22:00:00,
2013-02-20 15:06:00,30.2,28.4,29.72,West,274,4.0,8.0,93,0.00,,,0.00,132,Wunderground v.1.15,2013-02-20 22:06:00,
2013-02-20 15:12:00,30.2,28.7,29.71,West,278,3.0,3.0,94,0.00,,,0.00,151,Wunderground v.1.15,2013-02-20 22:12:00,
2013-02-20 15:18:00,30.2,28.7,29.71,WSW,245,1.0,3.0,94,0.00,,,0.00,90,Wunderground v.1.15,2013-02-20 22:18:00,
2013-02-20 15:24:00,30.1,28.6,29.72,WSW,238,2.0,4.0,94,0.00,,,0.00,91,Wunderground v.1.15,2013-02-20 22:24:00,
2013-02-20 15:30:00,29.9,28.4,29.72,SW,232,4.0,4.0,94,0.00,,,0.00,88,Wunderground v.1.15,2013-02-20 22:30:00,
2013-02-20 15:36:00,29.8,28.3,29.72,WSW,244,5.0,7.0,94,0.00,,,0.00,84,Wunderground v.1.15,2013-02-20 22:36:00,
2013-02-20 15:42:00,29.8,28.3,29.70,West,265,5.0,6.0,94,0.00,,,0.00,134,Wunderground v.1.15,2013-02-20 22:42:00,
2013-02-20 15:48:00,29.7,28.2,29.72,WSW,257,5.0,6.0,94,0.00,,,0.00,69,Wunderground v.1.15,2013-02-20 22:48:00,
2013-02-20 15:54:00,29.7,28.2,29.73,WSW,248,5.0,6.0,94,0.00,,,0.00,76,Wunderground v.1.15,2013-02-20 22:54:00,
2013-02-20 16:00:00,29.6,28.1,29.71,West,263,5.0,5.0,94,0.00,,,0.00,118,Wunderground v.1.15,2013-02-20 23:00:00,
2013-02-20 16:06:00,29.6,28.1,29.72,WSW,238,4.0,6.0,94,0.00,,,0.00,116,Wunderground v.1.15,2013-02-20 23:06:00,
2013-02-20 16:12:00,29.7,28.2,29.73,SW,223,5.0,6.0,94,0.00,,,0.00,97,Wunderground v.1.15,2013-02-20 23:12:00,
2013-02-20 16:18:00,29.9,28.4,29.74,SSW,210,5.0,8.0,94,0.00,,,0.00,83,Wunderground v.1.15,2013-02-20 23:18:00,
2013-02-20 16:24:00,29.7,28.2,29.74,SSW,205,6.0,7.0,94,0.00,,,0.00,104,Wunderground v.1.15,2013-02-20 23:24:00,
2013-02-20 16:30:00,29.7,28.2,29.75,SSW,209,6.0,7.0,94,0.00,,,0.00,107,Wunderground v.1.15,2013-02-20 23:30:00,
2013-02-20 16:36:00,30.0,28.5,29.75,WSW,238,5.0,8.0,94,0.00,,,0.00,105,Wunderground v.1.15,2013-02-20 23:36:00,
2013-02-20 16:42:00,30.1,28.6,29.75,WSW,244,6.0,8.0,94,0.00,,,0.00,76,Wunderground v.1.15,2013-02-20 23:42:00,
2013-02-20 16:48:00,30.2,28.7,29.75,SW,235,6.0,8.0,94,0.00,,,0.00,53,Wunderground v.1.15,2013-02-20 23:48:00,
2013-02-20 16:54:00,30.1,28.6,29.75,WSW,242,5.0,6.0,94,0.00,,,0.00,56,Wunderground v.1.15,2013-02-20 23:54:00,
2013-02-20 17:00:00,30.3,28.8,29.75,WSW,256,6.0,6.0,94,0.00,,,0.00,60,Wunderground v.1.15,2013-02-21 00:00:00,
2013-02-20 17:06:00,30.3,28.8,29.75,West,259,7.0,11.0,94,0.00,,,0.00,91,Wunderground v.1.15,2013-02-21 00:06:00,
2013-02-20 17:12:00,30.3,28.5,29.76,WSW,257,7.0,7.0,93,0.00,,,0.00,160,Wunderground v.1.15,2013-02-21 00:12:00,
2013-02-20 17:18:00,30.3,28.5,29.76,SW,236,6.0,8.0,93,0.00,,,0.00,88,Wunderground v.1.15,2013-02-21 00:18:00,
2013-02-20 17:24:00,30.3,28.5,29.75,WSW,246,5.0,6.0,93,0.00,,,0.00,54,Wunderground v.1.15,2013-02-21 00:24:00,
2013-02-20 17:30:00,30.3,28.5,29.76,WSW,248,4.0,4.0,93,0.00,,,0.00,51,Wunderground v.1.15,2013-02-21 00:30:00,
2013-02-20 17:36:00,30.1,28.3,29.76,WSW,250,4.0,4.0,93,0.00,,,0.00,21,Wunderground v.1.15,2013-02-21 00:36:00,
2013-02-20 17:42:00,30.0,28.2,29.76,WSW,250,5.0,10.0,93,0.00,,,0.00,28,Wunderground v.1.15,2013-02-21 00:42:00,
2013-02-20 17:48:00,29.9,28.1,29.76,West,267,7.0,10.0,93,0.00,,,0.00,21,Wunderground v.1.15,2013-02-21 00:48:00,
2013-02-20 17:54:00,29.8,28.0,29.76,West,267,6.0,9.0,93,0.00,,,0.00,21,Wunderground v.1.15,2013-02-21 00:54:00,
2013-02-20 18:00:00,30.0,28.2,29.77,West,265,6.0,7.0,93,0.00,,,0.00,11,Wunderground v.1.15,2013-02-21 01:00:00,
2013-02-20 18:06:00,30.4,28.6,29.77,WSW,257,8.0,11.0,93,0.00,,,0.00,5,Wunderground v.1.15,2013-02-21 01:06:00,
2013-02-20 18:12:00,30.6,28.8,29.78,West,269,7.0,8.0,93,0.00,,,0.00,0,Wunderground v.1.15,2013-02-21 01:12:00,
2013-02-20 18:18:00,30.9,29.1,29.78,West,265,6.0,8.0,93,0.00,,,0.00,0,Wunderground v.1.15,2013-02-21 01:18:00,
2013-02-20 18:24:00,31.1,29.0,29.78,WSW,252,7.0,9.0,92,0.00,,,0.00,0,Wunderground v.1.15,2013-02-21 01:24:00,
2013-02-20 18:30:00,31.2,29.4,29.78,WSW,251,7.0,7.0,93,0.00,,,0.00,0,Wunderground v.1.15,2013-02-21 01:30:00,
2013-02-20 18:36:00,31.3,29.2,29.78,WSW,254,6.0,7.0,92,0.00,,,0.00,0,Wunderground v.1.15,2013-02-21 01:36:00,
2013-02-20 18:42:00,31.4,29.6,29.79,WSW,242,6.0,6.0,93,0.00,,,0.00,0,Wunderground v.1.15,2013-02-21 01:42:00,
2013-02-20 18:48:00,31.0,29.2,29.79,WSW,248,6.0,8.0,93,0.00,,,0.00,0,Wunderground v.1.15,2013-02-21 01:48:00,
2013-02-20 18:54:00,30.8,29.3,29.80,WSW,255,6.0,7.0,94,0.00,,,0.00,0,Wunderground v.1.15,2013-02-21 01:54:00,
2013-02-20 19:00:00,30.7,29.2,29.80,SW,225,5.0,6.0,94,0.00,,,0.00,0,Wunderground v.1.15,2013-02-21 02:00:00,
2013-02-20 19:06:00,30.6,29.3,29.80,SW,228,6.0,9.0,95,0.00,,,0.00,0,Wunderground v.1.15,2013-02-21 02:06:00,
2013-02-20 19:12:00,30.6,29.3,29.81,WSW,255,7.0,7.0,95,0.00,,,0.00,0,Wunderground v.1.15,2013-02-21 02:12:00,
2013-02-20 19:18:00,30.6,29.3,29.82,WSW,257,7.0,14.0,95,0.00,,,0.00,0,Wunderground v.1.15,2013-02-21 02:18:00,
2013-02-20 19:24:00,30.6,29.3,29.82,WNW,302,8.0,8.0,95,0.00,,,0.00,0,Wunderground v.1.15,2013-02-21 02:24:00,
2013-02-20 19:30:00,30.4,29.1,29.83,NW,304,7.0,8.0,95,0.00,,,0.00,0,Wunderground v.1.15,2013-02-21 02:30:00,
2013-02-20 19:36:00,29.6,28.3,29.83,NW,306,8.0,11.0,95,0.00,,,0.00,0,Wunderground v.1.15,2013-02-21 02:36:00,
2013-02-20 19:42:00,29.2,27.9,29.83,NW,306,8.0,10.0,95,0.00,,,0.00,0,Wunderground v.1.15,2013-02-21 02:42:00,
2013-02-20 19:48:00,29.2,27.9,29.83,NW,313,7.0,10.0,95,0.00,,,0.00,0,Wunderground v.1.15,2013-02-21 02:48:00,
2013-02-20 19:54:00,29.2,27.9,29.84,NW,309,7.0,8.0,95,0.00,,,0.00,0,Wunderground v.1.15,2013-02-21 02:54:00,
2013-02-20 20:00:00,29.3,28.0,29.84,West,267,7.0,7.0,95,0.00,,,0.00,0,Wunderground v.1.15,2013-02-21 03:00:00,
2013-02-20 20:06:00,29.6,28.3,29.84,WNW,299,7.0,10.0,95,0.00,,,0.00,0,Wunderground v.1.15,2013-02-21 03:06:00,
2013-02-20 20:13:00,30.0,28.7,29.85,WNW,294,8.0,8.0,95,0.00,,,0.00,0,Wunderground v.1.15,2013-02-21 03:13:00,
2013-02-20 20:18:00,29.9,28.6,29.85,WNW,302,8.0,10.0,95,0.00,,,0.00,0,Wunderground v.1.15,2013-02-21 03:18:00,
2013-02-20 20:24:00,29.8,28.5,29.85,WNW,302,9.0,10.0,95,0.00,,,0.00,0,Wunderground v.1.15,2013-02-21 03:24:00,
2013-02-20 20:30:00,29.8,28.5,29.86,NW,319,9.0,9.0,95,0.00,,,0.00,0,Wunderground v.1.15,2013-02-21 03:30:00,
2013-02-20 20:36:00,30.2,28.9,29.86,WNW,296,9.0,9.0,95,0.00,,,0.00,0,Wunderground v.1.15,2013-02-21 03:36:00,
2013-02-20 20:42:00,30.4,28.9,29.86,WNW,283,9.0,11.0,94,0.00,,,0.00,0,Wunderground v.1.15,2013-02-21 03:42:00,
2013-02-20 20:48:00,30.2,28.7,29.87,West,273,10.0,11.0,94,0.00,,,0.00,0,Wunderground v.1.15,2013-02-21 03:48:00,
2013-02-20 20:54:00,30.4,28.9,29.87,West,278,9.0,12.0,94,0.00,,,0.00,0,Wunderground v.1.15,2013-02-21 03:54:00,
2013-02-20 21:00:00,30.7,28.9,29.87,WNW,301,10.0,10.0,93,0.00,,,0.00,0,Wunderground v.1.15,2013-02-21 04:00:00,
2013-02-20 21:06:00,30.6,28.6,29.87,West,278,9.0,13.0,92,0.00,,,0.00,0,Wunderground v.1.15,2013-02-21 04:06:00,
2013-02-20 21:12:00,30.4,28.4,29.88,WNW,297,9.0,9.0,92,0.00,,,0.00,0,Wunderground v.1.15,2013-02-21 04:12:00,
2013-02-20 21:19:00,29.7,27.7,29.89,WNW,300,7.0,9.0,92,0.00,,,0.00,0,Wunderground v.1.15,2013-02-21 04:19:00,
2013-02-20 21:24:00,29.9,28.1,29.89,WNW,284,7.0,10.0,93,0.00,,,0.00,0,Wunderground v.1.15,2013-02-21 04:24:00,
2013-02-20 21:30:00,30.1,28.1,29.90,WNW,288,7.0,7.0,92,0.00,,,0.00,0,Wunderground v.1.15,2013-02-21 04:30:00,
2013-02-20 21:36:00,30.2,27.9,29.90,West,281,7.0,8.0,91,0.00,,,0.00,0,Wunderground v.1.15,2013-02-21 04:36:00,
2013-02-20 21:42:00,30.2,27.6,29.90,WNW,284,8.0,8.0,90,0.00,,,0.00,0,Wunderground v.1.15,2013-02-21 04:42:00,
2013-02-20 21:49:00,29.5,26.9,29.91,WNW,300,7.0,8.0,90,0.00,,,0.00,0,Wunderground v.1.15,2013-02-21 04:49:00,
2013-02-20 21:54:00,28.3,25.7,29.91,WNW,289,6.0,6.0,90,0.00,,,0.00,0,Wunderground v.1.15,2013-02-21 04:54:00,
2013-02-20 22:00:00,28.7,26.4,29.91,West,276,6.0,6.0,91,0.00,,,0.00,0,Wunderground v.1.15,2013-02-21 05:00:00,
2013-02-20 22:06:00,28.5,26.2,29.91,WNW,289,6.0,6.0,91,0.00,,,0.00,0,Wunderground v.1.15,2013-02-21 05:06:00,
2013-02-20 22:10:00,28.7,26.4,29.91,WNW,292,6.0,6.0,91,0.00,,,0.00,0,Wunderground v.1.15,2013-02-21 05:10:00,
2013-02-20 22:16:00,29.0,26.4,29.92,West,279,6.0,6.0,90,0.00,,,0.00,0,Wunderground v.1.15,2013-02-21 05:16:00,
2013-02-20 22:20:00,29.1,26.5,29.92,West,281,5.0,7.0,90,0.00,,,0.00,0,Wunderground v.1.15,2013-02-21 05:20:00,
2013-02-20 22:26:00,28.9,26.3,29.93,West,277,6.0,8.0,90,0.00,,,0.00,0,Wunderground v.1.15,2013-02-21 05:26:00,
2013-02-20 22:32:00,29.5,26.9,29.93,West,280,7.0,10.0,90,0.00,,,0.00,0,Wunderground v.1.15,2013-02-21 05:32:00,
2013-02-20 22:38:00,30.1,27.5,29.93,West,277,8.0,10.0,90,0.00,,,0.00,0,Wunderground v.1.15,2013-02-21 05:38:00,
2013-02-20 22:44:00,30.4,27.5,29.93,WNW,282,9.0,10.0,89,0.00,,,0.00,0,Wunderground v.1.15,2013-02-21 05:44:00,
2013-02-20 22:50:00,29.8,27.0,29.94,West,280,7.0,7.0,89,0.00,,,0.00,0,Wunderground v.1.15,2013-02-21 05:50:00,
2013-02-20 22:56:00,30.3,27.7,29.94,WNW,293,7.0,9.0,90,0.00,,,0.00,0,Wunderground v.1.15,2013-02-21 05:56:00,
2013-02-20 23:02:00,30.2,27.6,29.95,NW,304,8.0,8.0,90,0.00,,,0.00,0,Wunderground v.1.15,2013-02-21 06:02:00,
2013-02-20 23:08:00,29.6,27.6,29.95,WNW,299,7.0,12.0,92,0.00,,,0.00,0,Wunderground v.1.15,2013-02-21 06:08:00,
2013-02-20 23:14:00,29.0,27.2,29.95,WNW,292,6.0,8.0,93,0.00,,,0.00,0,Wunderground v.1.15,2013-02-21 06:14:00,
2013-02-20 23:20:00,28.5,26.7,29.95,West,275,4.0,4.0,93,0.00,,,0.00,0,Wunderground v.1.15,2013-02-21 06:20:00,
2013-02-20 23:26:00,28.3,26.3,29.96,WNW,282,4.0,5.0,92,0.00,,,0.00,0,Wunderground v.1.15,2013-02-21 06:26:00,
2013-02-20 23:32:00,28.2,26.2,29.96,West,273,5.0,7.0,92,0.00,,,0.00,0,Wunderground v.1.15,2013-02-21 06:32:00,
2013-02-20 23:39:00,28.5,26.7,29.97,WNW,290,6.0,7.0,93,0.00,,,0.00,0,Wunderground v.1.15,2013-02-21 06:39:00,
2013-02-20 23:44:00,28.5,26.5,29.96,WNW,290,5.0,6.0,92,0.00,,,0.00,0,Wunderground v.1.15,2013-02-21 06:44:00,
2013-02-20 23:50:00,28.2,26.2,29.97,WNW,286,5.0,8.0,92,0.00,,,0.00,0,Wunderground v.1.15,2013-02-21 06:50:00,
2013-02-20 23:56:00,28.4,26.4,29.97,WNW,292,6.0,8.0,92,0.00,,,0.00,0,Wunderground v.1.15,2013-02-21 06:56:00,